Regional Weather Roundup
Issued by NWS

Home | Current Version | Previous Version | Text Only | Print | Product List | Glossary On
Versions: 1 2 3 4 5 6 7 8 9 10 11 12 13 14 15 16 17 18 19 20 21 22 23 24 25 26 27 28 29 30 31 32 33 34 35 36 37 38 39 40 41 42 43 44 45 46 47 48 49 50
000
ASUS43 KLSX 231707
RWRMO

WEATHER SUMMARY FOR MISSOURI
NATIONAL WEATHER SERVICE SPRINGFIELD MO
1200 PM CDT WED AUG 23 2017

NOTE: "FAIR" INDICATES FEW OR NO CLOUDS BELOW 12,000 FEET WITH NO
       SIGNIFICANT WEATHER AND/OR OBSTRUCTIONS TO VISIBILITY.
       CURRENT SKY AND/OR WEATHER CONDITIONS ARE NOT AVAILABLE FOR
       CHILLICOTHE AND FARMINGTON.

MOZ001>031-035>038-043-044-053-054-231800-
...NORTHERN AND WESTERN MISSOURI...

CITY           SKY/WX    TMP DP  RH WIND       PRES   REMARKS
KANSAS CTY INT NOT AVBL
KANSAS C DTWN  SUNNY     77  53  43 E6        30.15F
LEE`S SUMMIT     N/A     75  54  47 CALM      30.17S
ST JOSEPH      SUNNY     75  53  46 SW6       30.17S
CHILLICOTHE      N/A     76  53  44 CALM      30.17S
KIRKSVILLE     SUNNY     76  49  38 N12G17    30.16F

$$
MOZ066>068-077>081-088>096-101>105-231800-
...SOUTHWEST MISSOURI...

CITY           SKY/WX    TMP DP  RH WIND       PRES   REMARKS
SPRINGFIELD    SUNNY     75  57  53 N8        30.14F
JOPLIN         SUNNY     77  59  53 E9        30.14S
BRANSON        PTSUNNY   75  59  57 E7        30.14F

$$
MOZ032>034-039>042-045>050-055>058-069>072-231800-
...CENTRAL MISSOURI...

CITY           SKY/WX    TMP DP  RH WIND       PRES   REMARKS
COLUMBIA       SUNNY     75  54  47 N6        30.15S
JEFFERSON CITY SUNNY     75  54  47 VRB6      30.13F HAZE
ROLLA          SUNNY     73  53  49 NE6       30.15F
SEDALIA        SUNNY     78  55  44 MISG      30.17S
WHITEMAN AFB   MOSUNNY   74  54  48 NE6       30.15S
WARRENSBURG    SUNNY     73  54  49 NE5       30.16S
OSAGE BEACH    SUNNY     73  54  51 NE6       30.15F

$$
MOZ051-052-059>065-231800-
...EAST CENTRAL MISSOURI...

CITY           SKY/WX    TMP DP  RH WIND       PRES   REMARKS
ST LOUIS INTL  MOSUNNY   76  53  44 VRB6      30.13S
SPIRIT OF STL  MOSUNNY   77  53  43 N8        30.12S
ST CHARLES     SUNNY     77  54  44 N8        30.12S

$$
MOZ072>076-082>087-097>100-106>115-231800-
...SOUTH CENTRAL AND SOUTHEAST MISSOURI...

CITY           SKY/WX    TMP DP  RH WIND       PRES   REMARKS
CAPE GIRARDEAU MOSUNNY   78  54  43 NE7       30.09F
FARMINGTON     SUNNY     74  55  51 N12       30.13F
POPLAR BLUFF   MOSUNNY   77  60  55 NE6       30.08F
WEST PLAINS    MOSUNNY   74  56  53 E6        30.14F

$$


USA.gov is the U.S. government's official web portal to all federal, state and local government web resources and services.